Regional Weather Roundup
Issued by NWS

Home | Current Version | Previous Version | Graphics & Text | Print | Product List | Glossary Off
Versions: 1 2 3 4 5 6 7 8 9 10 11 12 13 14 15 16 17 18 19 20 21 22 23 24 25 26 27 28 29 30 31 32 33 34 35 36 37 38 39 40 41 42 43 44 45 46 47 48 49 50

000
ASUS43 KMKX 101811
RWRWI

WISCONSIN REGIONAL WEATHER ROUNDUP
NATIONAL WEATHER SERVICE MILWAUKEE/SULLIVAN WI
100 PM CDT THU JUL 10 2014

NOTE: "FAIR" INDICATES FEW OR NO CLOUDS BELOW 12,000 FEET WITH NO
SIGNIFICANT WEATHER AND/OR OBSTRUCTIONS TO VISIBILITY.

WIZ001-002-006>008-014>016-023>028-101900-
NORTHWEST WISCONSIN

CITY           SKY/WX    TMP DP  RH WIND       PRES   REMARKS
SUPERIOR ARPT  SUNNY     69  57  66 NE7       30.04F
6HR MIN TEMP:  55; 6HR MAX TEMP:  69;

ASHLAND        PTSUNNY   77  57  50 S8        30.08S
6HR MIN TEMP:  53; 6HR MAX TEMP:  77;

HAYWARD        MOSUNNY   77  53  43 S9        30.09S
6HR MIN TEMP:  57; 6HR MAX TEMP:  77;

SIREN          SUNNY     79  53  41 SW5       30.06F
6HR MIN TEMP:  60; 6HR MAX TEMP:  79;

RICE LAKE      MOSUNNY   76  58  53 SE7       30.09F
6HR MIN TEMP:  57; 6HR MAX TEMP:  76;

LADYSMITH      MOSUNNY   76  57  50 SE9       30.12F
6HR MIN TEMP:  56; 6HR MAX TEMP:  76;

EAU CLAIRE     MOSUNNY   79  57  46 S8        30.07F HX  80
6HR MIN TEMP:  59; 6HR MAX TEMP:  80;

MENOMONIE      CLEAR     79  59  50 S3        30.08S HX  80
6HR MIN TEMP:  59; 6HR MAX TEMP:  79;

NEW RICHMOND   MOSUNNY   78  57  48 S8        30.07S
6HR MIN TEMP:  60; 6HR MAX TEMP:  78;

OSCEOLA        MOSUNNY   80  58  46 S6        30.08F HX  80
6HR MIN TEMP:  61; 6HR MAX TEMP:  80;

$$

WIZ003>005-009-010-017-018-101900-
NORTH CENTRAL WISCONSIN

CITY           SKY/WX    TMP DP  RH WIND       PRES   REMARKS
WOODRUFF       MOSUNNY   77  58  52 SW9       30.13F
6HR MIN TEMP:  56; 6HR MAX TEMP:  77;

RHINELANDER    MOSUNNY   72  52  49 S9        30.15F
6HR MIN TEMP:  50; 6HR MAX TEMP:  72;

EAGLE RIVER    MOSUNNY   72  50  47 SW6       30.14S
6HR MIN TEMP:  48; 6HR MAX TEMP:  72;

LAND O LAKES   MOSUNNY   73  50  44 SW6G16    30.15S
6HR MIN TEMP:  48; 6HR MAX TEMP:  73;

PHILLIPS       PTSUNNY   73  55  52 S12       30.12S
6HR MIN TEMP:  55; 6HR MAX TEMP:  73;

TOMAHAWK       MOSUNNY   73  54  52 CALM      30.14F
6HR MIN TEMP:  48; 6HR MAX TEMP:  74;

MEDFORD        PTSUNNY   72  57  58 S9        30.13F
6HR MIN TEMP:  55; 6HR MAX TEMP:  73;

MERRILL        PTSUNNY   74  55  51 S10G17    30.13F
6HR MIN TEMP:  49; 6HR MAX TEMP:  75;

$$

WIZ029-030-035-036-043>047-101900-
CENTRAL WISCONSIN

CITY           SKY/WX    TMP DP  RH WIND       PRES   REMARKS
WAUSAU         MOSUNNY   75  53  46 S7        30.12F
6HR MIN TEMP:  53; 6HR MAX TEMP:  76;

MOSINEE        MOSUNNY   73  55  53 S7        30.14F
MARSHFIELD     MOSUNNY   75  59  57 S10       30.13S
6HR MIN TEMP:  57; 6HR MAX TEMP:  76;

STEVENS POINT  PTSUNNY   73  53  47 S9        30.14F
6HR MIN TEMP:  51; 6HR MAX TEMP:  74;

WAUPACA        MOSUNNY   80  55  42 SE5       30.15F HX  80
6HR MIN TEMP:  55; 6HR MAX TEMP:  80;

WAUTOMA        SUNNY     78  54  43 CALM      30.15F
6HR MIN TEMP:  54; 6HR MAX TEMP:  78;

WISC RAPIDS    MOSUNNY   77  55  46 S9G16     30.14F
6HR MIN TEMP:  57; 6HR MAX TEMP:  78;

CAMP DOUGLAS   MOSUNNY   77  61  57 S6        30.12S
$$

WIZ011>013-019>022-031-037>040-048>050-101900-
NORTHEAST WISCONSIN

CITY           SKY/WX    TMP DP  RH WIND       PRES   REMARKS
ANTIGO         PTSUNNY   71  56  58 SW5       30.16F
6HR MIN TEMP:  52; 6HR MAX TEMP:  72;

STURGEON BAY   SUNNY     66  54  63 SE12G17   30.19S
6HR MIN TEMP:  57; 6HR MAX TEMP:  66;

GREEN BAY      SUNNY     75  53  46 SW7       30.17S
6HR MIN TEMP:  57; 6HR MAX TEMP:  75;

MANITOWOC      SUNNY     65  56  72 S13       30.20S
6HR MIN TEMP:  52; 6HR MAX TEMP:  66;

APPLETON       MOSUNNY   72  52  49 S8        30.17F
CLINTONVILLE   MOSUNNY   73  50  43 CALM      30.15F
OSHKOSH        MOSUNNY   75  55  49 VRB5      30.16F
6HR MIN TEMP:  58; 6HR MAX TEMP:  76;

$$

WIZ032>034-041-042-053>061-101900-
SOUTHWEST WISCONSIN

CITY           SKY/WX    TMP DP  RH WIND       PRES   REMARKS
LA CROSSE      MOSUNNY   80  63  55 S9        30.09S HX  81
6HR MIN TEMP:  62; 6HR MAX TEMP:  81;

SPARTA         PTSUNNY   78  59  53 S9        30.11F
6HR MIN TEMP:  55; 6HR MAX TEMP:  78;

VIROQUA        MOCLDY    77  62  59 SW9G17    30.14S
6HR MIN TEMP:  60; 6HR MAX TEMP:  77;

BOSCOBEL       PTSUNNY   80  60  50 VRB6      30.13S HX  81
6HR MIN TEMP:  59; 6HR MAX TEMP:  81;

PRAIRIE DU CHI SUNNY     78  59  52 S5        30.11F
6HR MIN TEMP:  60; 6HR MAX TEMP:  78;

PLATTEVILLE    FAIR      77  60  56 S9        30.16S
6HR MIN TEMP:  62; 6HR MAX TEMP:  77;

$$

WIZ056-057-062-063-064-067-068-101900-
SOUTH CENTRAL WISCONSIN

CITY           SKY/WX    TMP DP  RH WIND       PRES   REMARKS
BARABOO/DELLS  PTSUNNY   78  55  45 S12       30.14F
6HR MIN TEMP:  58; 6HR MAX TEMP:  78;

LONE ROCK      MOSUNNY   80  62  54 S10       30.13F HX  81
6HR MIN TEMP:  60; 6HR MAX TEMP:  81;

WATERTOWN      MOSUNNY   76  53  45 SW6       30.17F
6HR MIN TEMP:  58; 6HR MAX TEMP:  76;

MADISON        MOSUNNY   78  55  44 S14       30.15F
6HR MIN TEMP:  59; 6HR MAX TEMP:  78;

MIDDLETON      FAIR      77  54  44 S8        30.16F
6HR MIN TEMP:  57; 6HR MAX TEMP:  78;

MONROE         MOSUNNY   75  55  50 S8        30.16F
JANESVILLE     MOSUNNY   79  54  41 S7        30.16F
$$

WIZ051-052-058>065-066-070>072-101900-
SOUTHEAST WISCONSIN

CITY           SKY/WX    TMP DP  RH WIND       PRES   REMARKS
MILWAUKEE      MOSUNNY   69  57  65 SE14      30.19F
6HR MIN TEMP:  62; 6HR MAX TEMP:  70;

WAUKESHA       PTSUNNY   73  54  49 SE3       30.19F
MILWAUKEE/TIMM SUNNY     72  54  53 E9        30.19F
RACINE         SUNNY     70  57  63 SE10      30.22S
6HR MIN TEMP:  61; 6HR MAX TEMP:  70;

BURLINGTON     MOSUNNY   74  53  46 CALM      30.18F
6HR MIN TEMP:  54; 6HR MAX TEMP:  74;

KENOSHA        SUNNY     71  58  63 SE10      30.20S
6HR MIN TEMP:  59; 6HR MAX TEMP:  72;

FOND DU LAC    SUNNY     76  54  46 VRB6      30.17S
6HR MIN TEMP:  57; 6HR MAX TEMP:  76;

SHEBOYGAN      SUNNY     70  57  63 SE10      30.19F
6HR MIN TEMP:  55; 6HR MAX TEMP:  72;

WEST BEND      PTSUNNY   70  55  60 E8        30.18S
JUNEAU         SUNNY     75  37  25 S8        30.18F
6HR MIN TEMP:  59; 6HR MAX TEMP:  75;

$$

LSZ147-162-101900-
LAKE SUPERIOR

STATION/POSITION TIME  TEMP    WIND        PRES    WAVE
                       AIR SEA DIR/SP/G            HT/PER
                 (UTC) (F)     (DEG/KT/KT) (MB)    (FT/S)
W MID LAKE BUOY  1750   46 39  130/  6/  8 1019.3F   0
PORT WING        1700   61      30/ 12/ 13 1018.3S
SAXON HARBOR     1700           CALM  /  5 1019.0R
$$

LMZ867-665-643>646-101900-
LAKE MICHIGAN

STATION/POSITION TIME  TEMP    WIND        PRES    WAVE
                       AIR SEA DIR/SP/G            HT/PER
                 (UTC) (F)     (DEG/KT/KT) (MB)    (FT/S)
N MID LAKE BUOY  1750   57 56  200/  8/ 10 1022.1F   0
NORTHPORT PIER   1700   62     150/ 10/ 16 1022.0S
KEWAUNEE LAKESHO 1700   54     160/  6/  7 1023.3R
SHEBOYGAN LAKESH 1800   59     140/ 11/ 12 1022.7F
PORT WASHINGTON  1700   63      60/  3/  4 1023.4S
MILWAUKEE LAKESH 1700   61     120/  8/  9   N/A
S MID LAKE BUOY  1750   61 60  190/  2/  2 1023.3S   0
KENOSHA   LAKESH 1800   64     140/ 11/ 12   N/A
$$

TC  - TEMPERATURE IN CELSIUS
VSB - VISIBILITY IN STATUTE MILES
WCI - WIND CHILL INDEX
HX  - HEAT INDEX




USA.gov is the U.S. government's official web portal to all federal, state and local government web resources and services.